Regional Weather Roundup
Issued by NWS Newport/Morehead, NC

Home | Current Version | Previous Version | Text Only | Print | Product List | Glossary On
Versions: 1 2 3 4 5 6 7 8 9 10 11 12 13 14 15 16 17 18 19 20 21 22 23 24 25 26 27 28 29 30 31 32 33 34 35 36 37 38 39 40 41 42 43 44 45 46 47 48 49 50
004
ASUS42 KMHX 300425
RWRMHX
WEATHER ROUNDUP FOR EASTERN NORTH CAROLINA
NATIONAL WEATHER SERVICE NEWPORT/MOREHEAD CITY NC
1200 AM EDT SAT APR 30 2016

NOTE: "FAIR" INDICATES FEW OR NO CLOUDS BELOW 12,000 FEET
WITH NO SIGNIFICANT WEATHER AND/OR OBSTRUCTIONS TO VISIBILITY

NCZ015>017-031-032-045>047-102-103-300500-
NORTH COAST

CITY           SKY/WX    TMP DP  RH WIND       PRES   REMARKS
EDENTON        CLOUDY    59  58  97 E9        30.04R
ELIZABETH CITY CLOUDY    56  54  93 N12       30.05R
KITTY HAWK     CLOUDY    55  54  96 NE7       30.04R FOG
MANTEO         NOT AVBL

$$

NCZ045>047-081-094-103-104-300500-
CENTRAL COAST

CITY           SKY/WX    TMP DP  RH WIND       PRES   REMARKS
FRISCO         CLOUDY    58  56  93 VRB7      30.02F
SWANQUARTER    NOT AVBL

$$

NCZ095-097-098-100-101-300500-
SOUTHERN COAST

CITY           SKY/WX    TMP DP  RH WIND       PRES   REMARKS
BEAUFORT       PTCLDY    60  58  92 CALM      30.01S
CEDAR ISLAND   NOT AVBL
JACKSONVILLE   CLEAR     63  58  83 SE6       29.99F
PINEY ISLAND   NOT AVBL
WILMINGTON     CLEAR     65  61  87 E5        30.00F


$$

NCZ011>013-027>030-043-044-078>080-089-090>093-098-300500-
COASTAL PLAIN

CITY           SKY/WX    TMP DP  RH WIND       PRES   REMARKS
AHOSKIE        CLOUDY    58  55  89 N6        30.06R
CLINTON        CLEAR     64  60  89 CALM      30.00R
ELIZABETHTOWN  PTCLDY    66  63  88 S3        30.00R
GOLDSBORO      CLEAR     61  61 100 E2        29.99R
GREENVILLE     CLEAR     59  57  94 CALM      30.03S
HAVELOCK       CLEAR     58  57  97 CALM      30.01F
KENANSVILLE    CLEAR     60  58  93 CALM      30.02R
KINSTON        CLEAR     61  59  92 CALM      30.03R
NEW BERN       CLEAR     59  57  93 CALM      30.01S
RICHLANDS      CLEAR     59  58  96 CALM      30.01S
ROCKY MOUNT    CLEAR     58  57  97 CALM      30.01S
WASHINGTON     CLEAR     57  56  96 CALM      30.01S FOG
WHITEVILLE     PTCLDY    65  63  91 CALM      30.00S

$$

AMZ130-135-150-152-154-156-158-170-250-252-270-ANZ085-086-088-633-658-670-300500-
MARINE OBSERVATIONS

STATION/POSITION TIME  TEMP    WIND        PRES    WAVE   SWELL
                       AIR SEA DIR/SP/G            HT/PER HT/PER
                 (UTC) (F)     (DEG/KT/KT) (MB)    (FT/S) (FT/S)
CHESAPEAKE LIGHT 0400   52      30/ 15/ 15 1018.3
64 E VA BEACH    0350   52 53  360/ 14/ 16 1016.4    6/ 8   5/ 8
DUCK             0400   54 66   20/ 12/ 16 1017.0
2 E DUCK         0311      58                N/A     4/ 8   2/11
OREGON INLET     0400   55 63  350/ 11/ 14 1017.2
13E OREGON INLT  0400      56                N/A     4/ 8   3/ 8
HATTERAS CG      0400   59 71  360/ 13/ 16 1016.2
DIAMOND BUOY     0350   57 75   20/ 14/ 16 1016.3    4/ 8   3/ 8
CAPE LOOKOUT     0400   65      80/ 13/ 14 1015.6
BEAUFORT LAB     0400   64 68  180/  1/  1 1015.0
30 SE NEW RVR IN 0325      68                N/A     2/ 6
27 SE WRIGHTSVLE 0408   68 69   80/ 10/ 14 1015.5
5 SE WRIGHTSVLE  0408   68 68  110/ 10/ 14 1016.4
225 S CAPE HAT   0350   71 71  300/  4/  4 1015.1    3/ 6   3/ 6
41 SE CHARLESTON 0350   74 72  130/  8/  8 1015.1    2/ 9   2/ 9

$$




USA.gov is the U.S. government's official web portal to all federal, state and local government web resources and services.